SCP
0 0 0 0 0 0 -0 0 0 0 0 0 0 0 0 0 0 0 0 0 -0 0 0 0 0 0 0 0 0 0 0 0 0 0 0 0 0 0 0 0 0 0 0
0 0 0 0 0 0 0 0 0 0 0 0 0 0 0 0 0 0 0 0 0 0 0 0 0 0 0 0 0 0 0 0 0 0 0 0 0 0 0 0 0 0 0
0 0 0 0 0 0 0 0 0 0 0 0 0 0 0 0 0 0 0 0 0 0 0 0 0 0 0 0 0 0 0 0 0 0 0 0 0 0 0 0 0 0 0
0 0 0 0 0 0 0 0 0 0 0 0 0 0 0 0 0 0 0 0 0 0 0 0 0 0 0 0 0 0 0 0 0 0 0 0 0 0 0 0 0 0 0
0 0 0 0 0 0 0 0 0 0 0 0 0 0 0 0 0 0 0 0 0 0 0 0 0 0 0 0 0 0 0 0 0 0 0 0 0 0 0 0 0 0 0
0 0 0 0 0 0 0 0 0 0 0 0 0 0 0 0 0 0 0 0 0 0 0 0 0 0 0 0 0 0 0 0 0 0 0 0 0 0 0 0 0 0 0
0 0 0 0 0 0 0 0 0 0 0 0 0 0 0 0 0 0 0 0 0 0 0 0 0 0 0 0 0 0 0 0 0 0 0 0 0 0 0 0 0 0 0
0 0 0 0 0 0 0 0 0 0 0 0 0 0 0 0 0 0 0 0 0 0 0 0 0 0 0 0 0 0 0 0 0 0 0 -0 0 0 0 0 0 0 0
0 0 0 0 0 0 0 0 0 0 0 0 0 0 0 0 0 0 0 0 0 0 0 0 0 0 0 -0 0 0 0 0 0 0 0 0 0 0 0 0 0 0 0
0 0 0 0 0 0 0 0 0 0 0 0 0 0 0 0 0 0 0 -0 -0 -0 0 0 0 0 0 -0 -0 0 0 0 0 0 0 0 0 0 0 0 0 0 0
0 0 0 0 0 0 0 0 0 0 0 0 0 0 0 0 0 0 0 -0 -0 0 0 0 0 0 0 0 -0 0 0 0 0 0 0 0 0 0 0 0 0 0 0
0 0 0 0 0 0 0 0 0 0 0 0 0 0 0 0 0 0 0 -0 0 0 0 0 0 0 0 0 0 0 0 0 0 0 0 0 0 0 0 0 0 0 0
0 0 0 0 0 0 0 0 0 0 0 0 0 0 0 0 0 0 0 0 0 0 0 0 0 0 0 0 -0 0 0 0 0 0 0 0 0 0 0 0 0 0 0
0 0 0 0 0 0 0 0 0 0 0 0 0 0 0 0 0 0 0 0 0 0 0 0 0 0 0 0 0 0 0 0 0 0 0 0 0 0 0 0 0 0 0
0 0 0 0 0 0 0 0 0 0 0 0 0 0 0 0 0 0 0 0 0 0 0 0 0 0 0 0 0 0 0 0 0 0 0 0 0 0 0 0 0 0 0
0 0 0 0 0 0 0 0 0 0 0 0 0 0 0 0 0 0 0 0 0 0 0 0 0 0 0 0 0 0 0 0 0 0 0 0 0 0 0 0 0 0 0
0 0 0 0 0 0 0 0 0 0 0 0 0 0 0 0 0 0 0 0 0 0 0 0 0 0 0 0 0 0 0 0 0 0 0 0 0 0 0 0 0 0 0
0 0 0 0 0 0 0 0 0 0 0 0 0 0 0 0 0 0 0 0 0 0 0 0 0 0 0 0 0 0 0 0 0 0 0 0 0 0 0 0 0 0 0
0 0 0 0 0 0 0 0 0 0 0 0 0 0 0 0 0 0 0 0 0 0 0 0 0 0 0 0 0 0 0 0 0 0 0 0 0 0 0 0 0 0 0
0 0 0 0 0 0 0 0 0 0 0 0 0 0 0 0 0 0 0 0 0 0 0 0 0 0 0 0 0 0 0 0 0 0 0 0 0 0 0 0 0 0 0
0 0 0 0 0 0 0 0 0 0 0 0 0 0 0 0 0 0 0 0 0 0 0 0 0 0 0 0 0 0 0 0 0 0 0 0 0 0 0 0 0 0 0
0 0 0 0 0 0 0 0 0 0 0 0 0 0 0 0 0 0 0 0 0 0 0 0 0 0 0 0 0 0 0 0 0 0 0 0 0 0 0 0 0 0 0
0 0 0 0 0 0 0 0 0 0 0 0 0 0 0 0 0 0 0 0 0 0 0 0 0 0 0 0 0 0 0 0 0 0 0 0 0 0 0 0 0 0 0
-0 0 0 0 0 0 0 0 0 0 0 0 0 0 0 0 0 0 0 0 0 0 0 0 0 0 0 0 0 0 0 0 0 0 0 0 0 0 0 0 0 0 0
-0 -0 0 0 0 0 0 0 0 0 0 0 0 0 0 0 0 0 0 0 0 0 0 0 0 0 0 0 0 0 0 0 0 0 0 0 0 0 0 0 0 0 0
-0 -0 0 0 0 0 0 0 0 0 0 0 0 0 0 0 0 0 0 0 0 0 0 0 0 0 0 0 0 0 0 0 0 0 0 0 0 0 0 0 0 0 0
Wind_Speed
3 3 4 4 4 4 4 4 5 4 3 3 3 3 2 2 3 3 4 4 4 4 4 3 4 4 3 3 3 2 4 3 2 3 3 4 4 5 4 4 4 5 5
3 4 4 3 4 4 3 4 4 4 3 3 2 2 2 1 1 2 4 5 5 4 4 4 3 3 3 5 4 3 2 3 3 2 2 3 4 4 5 4 4 5 4
7 6 5 4 4 4 4 4 4 4 3 3 3 3 3 3 3 3 3 4 4 4 4 4 3 4 3 3 4 3 3 2 3 3 3 2 0 2 3 4 4 4 4
6 6 6 5 5 4 3 4 4 4 3 4 4 4 3 2 1 1 1 3 4 5 4 4 4 4 3 4 3 3 2 3 2 2 3 2 2 1 2 3 3 4 4
8 7 7 6 5 4 4 4 4 4 3 4 5 5 3 2 1 1 3 3 4 5 4 4 4 4 3 4 4 4 4 3 2 2 1 2 2 2 2 1 3 3 3
7 6 5 5 4 4 4 4 5 3 3 4 4 5 5 4 3 2 2 2 2 3 4 4 4 4 3 4 3 4 4 3 4 3 3 2 1 1 1 1 1 2 3
8 8 7 6 5 5 4 4 5 4 3 4 4 4 4 4 4 2 2 1 2 2 3 3 3 3 3 3 4 4 4 4 4 3 2 2 2 1 1 1 1 1 2
8 8 8 7 6 6 5 5 5 4 4 4 3 3 4 3 2 2 2 2 1 0 1 2 3 3 4 4 4 4 3 3 4 4 3 2 2 2 1 1 1 2 3
9 9 8 7 7 7 6 6 6 4 4 4 4 4 3 3 3 2 2 1 1 1 2 2 3 3 4 4 4 3 3 3 3 3 3 2 2 2 2 1 1 2 1
8 8 7 7 6 6 5 5 5 5 4 4 4 4 3 3 3 3 3 2 1 2 2 3 3 3 3 3 3 3 3 4 3 2 3 3 2 2 2 2 2 1 2
9 8 7 6 6 5 5 5 5 4 4 4 4 4 4 3 3 3 2 2 2 2 3 3 3 3 3 3 3 3 3 4 4 4 4 3 3 2 2 2 2 2 1
7 7 7 6 6 6 5 5 5 5 4 4 5 5 4 4 3 3 2 2 3 2 3 3 3 3 3 3 3 3 3 3 3 3 3 3 3 3 2 2 2 1 1
7 6 6 7 7 6 6 5 5 5 4 5 5 5 4 4 3 2 2 2 3 3 3 3 3 3 3 3 3 3 3 3 2 2 2 2 3 3 2 2 2 1 1
7 7 7 6 6 6 6 6 5 5 5 6 5 5 4 4 3 3 3 2 3 3 3 2 2 2 2 3 3 3 3 3 3 3 2 2 2 1 2 2 2 1 2
7 8 8 7 6 6 6 5 5 5 6 6 5 5 4 4 4 3 3 3 3 3 3 3 2 2 2 2 3 3 3 3 3 3 3 3 4 5 3 2 1 1 1
8 8 8 8 8 8 7 6 6 6 6 6 5 5 5 4 4 3 3 3 3 2 3 3 2 2 2 4 5 4 3 2 2 3 3 3 5 6 7 7 6 4 2
8 9 9 9 8 8 8 8 7 6 6 6 5 5 5 4 4 4 4 3 2 2 3 2 2 2 1 3 5 5 3 2 2 2 2 3 4 5 3 5 7 6 6
8 8 8 7 6 6 7 7 6 7 6 6 5 5 5 5 4 4 4 3 2 2 2 1 2 2 1 3 4 5 3 2 2 1 1 1 2 3 3 3 3 3 4
8 7 8 7 7 8 8 8 7 6 6 6 6 6 6 6 5 4 4 2 3 2 2 2 2 2 1 2 3 4 3 2 2 1 1 1 1 4 5 3 3 4 4
6 6 6 7 8 7 8 9 8 7 7 6 6 5 6 6 6 5 4 2 3 3 3 2 1 1 0 1 2 3 2 2 1 1 2 3 4 4 4 2 1 3 4
6 7 8 7 7 8 9 8 7 7 6 5 5 5 5 5 5 4 3 3 3 3 3 2 1 1 0 0 1 2 2 2 1 1 2 2 5 5 5 3 1 3 4
6 7 7 6 6 8 9 8 7 6 6 6 6 5 5 5 5 5 4 3 4 4 3 2 1 1 1 1 1 2 2 2 1 1 1 2 5 5 5 4 5 6 5
7 6 7 6 5 6 8 8 6 7 7 7 6 5 5 4 4 5 5 4 3 3 2 2 1 1 1 1 1 1 1 1 1 1 2 3 4 5 4 5 6 5 2
6 6 7 7 5 5 5 6 6 7 8 7 6 5 5 4 3 3 4 4 3 3 2 2 2 1 0 1 1 0 0 1 1 1 2 4 4 3 3 5 4 3 2
5 6 7 6 6 5 4 5 6 8 8 7 5 5 5 5 4 3 2 3 3 4 4 3 3 3 2 3 3 1 1 1 1 0 1 2 2 2 3 3 3 3 3
5 6 5 6 5 6 5 5 6 7 8 6 5 4 4 4 3 3 2 1 2 2 3 3 4 3 3 1 2 2 2 1 1 1 0 1 2 2 3 3 4 3 3
Wind_Direction
175 149 136 127 120 116 116 119 118 117 116 105 96 85 62 32 25 26 33 35 40 45 54 52 40 40 50 40 37 51 49 34 16 50 29 15 29 40 29 19 23 24 20
159 154 138 134 138 143 138 130 134 135 130 121 115 112 109 72 39 14 30 31 35 36 52 53 48 43 50 41 35 45 55 33 28 71 70 19 2 6 16 16 25 21 18
179 172 161 156 150 155 161 151 146 135 125 116 102 84 61 43 29 19 15 11 26 37 45 51 56 49 53 51 37 40 67 62 28 45 101 106 284 327 345 10 19 17 21
178 173 167 163 167 174 161 143 139 130 128 126 120 120 116 107 50 9 11 16 28 36 40 48 54 54 52 53 40 45 53 78 53 30 43 87 136 113 349 343 359 13 21
178 175 174 171 169 160 152 145 130 121 127 130 131 122 112 112 83 55 46 31 24 30 36 43 51 51 50 53 51 47 51 59 73 61 49 55 52 65 104 352 340 352 357
176 171 164 154 152 144 140 137 129 124 131 131 130 131 131 124 105 78 61 33 21 21 27 39 46 50 51 53 55 56 59 57 64 60 57 67 69 48 80 87 346 339 327
171 167 164 164 162 157 154 147 143 143 142 133 131 136 138 135 133 131 115 84 42 23 12 33 41 44 48 55 59 62 56 54 63 62 55 56 58 85 108 104 48 360 330
174 175 176 171 170 168 163 159 158 154 150 145 144 139 136 131 130 135 131 121 104 50 24 46 48 48 53 60 61 62 54 56 59 58 58 55 37 45 81 119 117 43 359
177 177 172 170 170 171 174 171 165 155 156 154 143 136 133 129 131 125 113 109 103 84 60 59 57 52 56 62 67 61 50 57 54 53 56 54 29 36 43 69 108 121 64
174 172 171 172 171 172 170 163 160 160 157 153 150 140 134 130 128 116 106 99 87 75 73 63 62 58 58 64 68 60 46 58 44 47 54 45 25 31 36 46 53 89 139
178 175 172 168 163 159 158 157 154 145 143 145 137 127 126 118 113 110 109 106 88 84 82 79 76 70 63 62 69 62 57 62 47 40 49 37 31 37 29 37 44 48 89
171 168 163 158 160 161 161 161 156 152 152 143 133 128 121 114 110 107 103 97 93 83 84 85 79 73 66 64 73 68 59 64 55 37 42 27 35 37 26 32 32 25 49
157 155 157 166 170 168 167 166 162 159 147 136 132 127 126 127 130 128 115 101 98 87 79 85 84 78 73 74 74 77 65 59 51 41 43 21 41 31 18 24 19 1 21
163 163 169 173 173 171 168 165 161 156 147 140 140 141 148 148 145 131 117 110 106 99 91 88 88 88 86 84 82 77 68 56 43 36 38 29 44 35 19 23 8 11 26
169 171 174 176 172 168 166 163 159 156 151 145 149 158 151 135 125 118 113 106 100 101 98 91 75 79 92 100 102 89 79 66 45 31 28 29 42 39 34 36 18 38 37
181 176 172 172 176 176 173 166 164 162 152 153 158 152 138 128 126 125 118 107 100 94 88 86 85 78 79 103 110 107 89 70 58 36 17 24 33 29 28 30 31 33 41
178 177 178 180 181 179 172 170 167 155 152 154 153 151 145 141 143 136 122 122 122 107 97 92 91 84 75 105 110 107 102 88 73 55 29 24 20 21 19 20 22 15 14
177 178 176 174 171 163 157 149 145 149 152 153 157 157 152 150 144 135 136 140 129 123 126 122 116 102 81 101 105 103 93 84 67 54 43 28 353 356 18 24 14 355 344
177 175 173 166 156 155 152 143 143 146 150 161 167 166 159 153 149 149 151 150 135 128 128 122 120 112 93 99 110 107 99 82 46 13 16 17 349 351 15 31 7 347 334
153 152 150 144 148 150 145 144 151 155 168 173 170 160 156 156 159 161 157 147 142 143 126 103 106 128 161 100 112 114 113 101 36 352 347 354 353 354 6 21 1 333 315
146 146 145 148 155 150 146 150 156 173 174 157 147 144 150 154 154 150 146 139 132 119 113 107 76 60 321 31 106 118 127 154 146 329 322 324 344 350 351 351 306 304 317
133 141 144 146 145 150 151 155 172 169 145 140 139 143 145 148 143 138 133 130 129 123 122 111 64 357 334 351 77 111 122 139 150 236 275 301 334 346 349 346 334 336 345
142 142 144 141 144 157 160 166 170 148 140 138 142 144 139 134 138 143 141 132 132 137 147 146 165 273 322 335 29 91 100 121 149 245 290 322 338 345 345 340 342 347 348
145 140 137 141 151 158 163 164 151 147 142 145 147 144 140 135 133 137 144 146 156 158 161 167 187 213 280 290 296 305 350 357 351 337 335 341 347 343 328 333 336 332 305
144 143 147 152 158 152 149 144 148 147 144 146 148 146 146 149 147 145 155 165 181 179 175 188 186 179 212 234 210 180 212 222 229 341 11 1 346 339 329 324 319 313 314
142 140 143 146 150 148 146 146 150 150 146 146 151 154 152 148 147 143 107 72 143 167 174 173 173 201 216 217 202 221 236 241 212 73 2 304 299 294 297 302 306 302 296